Location: Rosenheim
(47.8408°N, 12.2113°E)
Time: 16:56:23
(UTC+02:00)

ISS - Pass Details

Date: 27 March 2017
Orbit: 401 x 409 km, 51.6° (Epoch: 28 April)

Event Time Altitude Azimuth Distance (km) Brightness Sun altitude
Rises 21:36:49 0° 228° (SW) 2,311 0.2 -20.4°
Reaches altitude 10° 21:38:56 10° 222° (SW) 1,457 -0.9 -20.7°
Enters shadow 21:39:52 17° 215° (SW) 1,101 -1.6 -20.8°
